NKS1477 EDDS-EDDH

Flight info

Callsign NKS1477
Flight time N/A
Altitude 37000
Route OKIBA4B/25 OKIBA N851 RIMKI Z99 LOHRE DCT MASEK DCT ELNAT/N0431F380 P605 NOLGO NOLGO3P
Aircraft A320/M-SDE3FGHIRWY/LB1

Departure

Time N/A
Airport Stuttgart Airport (EDDS)

Arrival

Time 2026-05-03 20:49
Airport Hamburg Helmut Schmidt Airport (EDDH)
Time Latitude Longitude Altitude Speed Heading
2026-05-03 20:15 51.84768 9.80574 36963 ft 466 kts
2026-05-03 20:15 51.91197 9.81807 36970 ft 466 kts
2026-05-03 20:16 51.97631 9.83058 36366 ft 465 kts
2026-05-03 20:16 52.00847 9.83686 35772 ft 465 kts
2026-05-03 20:16 52.04056 9.84311 35310 ft 463 kts
2026-05-03 20:16 52.07246 9.84932 34866 ft 461 kts
2026-05-03 20:17 52.10423 9.85553 34424 ft 459 kts
2026-05-03 20:17 52.13585 9.86172 33984 ft 457 kts
2026-05-03 20:17 52.16735 9.86786 33448 ft 455 kts
2026-05-03 20:17 52.19867 9.87400 32948 ft 453 kts
2026-05-03 20:18 52.22990 9.88013 32491 ft 450 kts
2026-05-03 20:18 52.26072 9.88854 32032 ft 449 kts 12°
2026-05-03 20:18 52.29074 9.90166 31588 ft 446 kts 13°
2026-05-03 20:18 52.32062 9.91484 31157 ft 443 kts 13°
2026-05-03 20:19 52.35026 9.92792 30744 ft 440 kts 13°
2026-05-03 20:19 52.37972 9.94091 30325 ft 437 kts 13°
2026-05-03 20:19 52.40899 9.95378 29344 ft 447 kts 13°
2026-05-03 20:19 52.43917 9.96705 28519 ft 451 kts 13°
2026-05-03 20:20 52.46934 9.98041 27609 ft 446 kts 13°
2026-05-03 20:20 52.49912 9.99365 26718 ft 440 kts 13°
2026-05-03 20:20 52.52848 10.00617 25990 ft 424 kts
2026-05-03 20:20 52.55643 10.00823 25696 ft 389 kts 352°
2026-05-03 20:21 52.58347 10.00705 24799 ft 394 kts
2026-05-03 20:21 52.60976 10.01923 23882 ft 390 kts 21°
2026-05-03 20:21 52.63414 10.03716 23441 ft 376 kts 25°
2026-05-03 20:21 52.65675 10.05664 23016 ft 361 kts 26°
2026-05-03 20:22 52.67927 10.07497 22657 ft 360 kts 20°
2026-05-03 20:22 52.70277 10.08885 22264 ft 356 kts 14°
2026-05-03 20:22 52.72652 10.09975 21842 ft 354 kts 11°
2026-05-03 20:22 52.75032 10.10938 21449 ft 349 kts 12°
2026-05-03 20:23 52.77202 10.12812 20766 ft 365 kts 37°
2026-05-03 20:23 52.79144 10.15553 20317 ft 366 kts 39°
2026-05-03 20:23 52.80515 10.17090 20254 ft 355 kts 21°
2026-05-03 20:23 52.82840 10.17947 20170 ft 337 kts 352°
2026-05-03 20:24 52.85074 10.17130 19882 ft 326 kts 335°
2026-05-03 20:24 52.87213 10.15899 19542 ft 325 kts 335°
2026-05-03 20:24 52.89347 10.14669 19208 ft 325 kts 335°
2026-05-03 20:24 52.91480 10.13438 18869 ft 325 kts 334°
2026-05-03 20:25 52.93665 10.12407 18508 ft 332 kts 349°
2026-05-03 20:25 52.95995 10.12349 18130 ft 336 kts 355°
2026-05-03 20:25 52.98336 10.12422 17728 ft 337 kts 356°
2026-05-03 20:25 53.00677 10.12508 17348 ft 336 kts 356°
2026-05-03 20:26 53.03018 10.12598 16965 ft 336 kts 356°
2026-05-03 20:26 53.05348 10.12687 16587 ft 335 kts 356°
2026-05-03 20:26 53.07680 10.12774 16205 ft 335 kts 356°
2026-05-03 20:26 53.10005 10.12856 15828 ft 334 kts 356°
2026-05-03 20:27 53.12333 10.12935 15443 ft 334 kts 356°
2026-05-03 20:27 53.14661 10.13012 15067 ft 334 kts 356°
2026-05-03 20:27 53.16980 10.13089 14688 ft 334 kts 356°
2026-05-03 20:27 53.19306 10.13167 14307 ft 334 kts 356°
2026-05-03 20:28 53.21632 10.13244 13920 ft 334 kts 356°
2026-05-03 20:28 53.23954 10.13322 13522 ft 334 kts 356°
2026-05-03 20:28 53.26278 10.13399 13126 ft 333 kts 356°
2026-05-03 20:28 53.28590 10.13474 12747 ft 332 kts 356°
2026-05-03 20:29 53.30892 10.13547 12368 ft 330 kts 357°
2026-05-03 20:29 53.33190 10.13622 11976 ft 329 kts 357°
2026-05-03 20:29 53.35474 10.13699 11596 ft 328 kts 357°
2026-05-03 20:29 53.37755 10.13776 11215 ft 327 kts 357°
2026-05-03 20:30 53.40016 10.13797 10919 ft 321 kts 352°
2026-05-03 20:30 53.42210 10.13512 10889 ft 314 kts 351°
2026-05-03 20:30 53.44396 10.13229 10915 ft 314 kts 351°
2026-05-03 20:30 53.46574 10.12955 10889 ft 314 kts 351°
2026-05-03 20:31 53.48753 10.12684 10892 ft 314 kts 351°
2026-05-03 20:31 53.50923 10.12409 10891 ft 312 kts 351°
2026-05-03 20:31 53.53074 10.12134 10893 ft 306 kts 351°
2026-05-03 20:31 53.55120 10.11879 10885 ft 292 kts 351°
2026-05-03 20:32 53.57115 10.12082 10898 ft 285 kts 10°
2026-05-03 20:32 53.58950 10.13353 10760 ft 289 kts 31°
2026-05-03 20:32 53.60447 10.15609 10447 ft 290 kts 51°
2026-05-03 20:32 53.61738 10.18223 10156 ft 290 kts 51°
2026-05-03 20:33 53.63029 10.20832 9897 ft 289 kts 51°
2026-05-03 20:33 53.64316 10.23432 9635 ft 288 kts 50°
2026-05-03 20:33 53.65597 10.26016 9349 ft 287 kts 50°
2026-05-03 20:33 53.66873 10.28589 9055 ft 286 kts 50°
2026-05-03 20:34 53.68142 10.31151 8633 ft 284 kts 50°
2026-05-03 20:34 53.69403 10.33702 8148 ft 282 kts 50°
2026-05-03 20:34 53.70652 10.36235 7671 ft 280 kts 51°
2026-05-03 20:34 53.71877 10.38714 7476 ft 273 kts 50°
2026-05-03 20:35 53.73096 10.41187 7321 ft 274 kts 50°
2026-05-03 20:35 53.74317 10.43670 7159 ft 275 kts 51°
2026-05-03 20:35 53.75531 10.46138 6914 ft 272 kts 51°
2026-05-03 20:35 53.76741 10.48600 6597 ft 273 kts 51°
2026-05-03 20:36 53.77953 10.51063 6298 ft 272 kts 51°
2026-05-03 20:36 53.79179 10.53557 6025 ft 271 kts 51°
2026-05-03 20:36 53.80363 10.55968 5761 ft 269 kts 51°
2026-05-03 20:36 53.81560 10.58395 5485 ft 268 kts 48°
2026-05-03 20:37 53.83044 10.60205 5208 ft 262 kts 17°
2026-05-03 20:37 53.84798 10.60616 4926 ft 251 kts 347°
2026-05-03 20:37 53.86394 10.59690 4622 ft 238 kts 320°
2026-05-03 20:37 53.87676 10.57976 4288 ft 234 kts 313°
2026-05-03 20:38 53.88727 10.55996 4057 ft 219 kts 290°
2026-05-03 20:38 53.89081 10.53542 4009 ft 210 kts 264°
2026-05-03 20:38 53.88779 10.51355 4011 ft 211 kts 242°
2026-05-03 20:38 53.87913 10.49365 4003 ft 213 kts 229°
2026-05-03 20:39 53.86842 10.47421 4004 ft 230 kts 229°
2026-05-03 20:39 53.85815 10.45446 3998 ft 217 kts 230°
2026-05-03 20:39 53.84872 10.43490 4001 ft 214 kts 231°
2026-05-03 20:39 53.83932 10.41538 4003 ft 213 kts 231°
2026-05-03 20:40 53.83017 10.39651 3998 ft 200 kts 231°
2026-05-03 20:40 53.82164 10.37896 3997 ft 185 kts 231°
2026-05-03 20:40 53.81392 10.36306 4014 ft 169 kts 231°
2026-05-03 20:40 53.80652 10.34783 3998 ft 164 kts 231°
2026-05-03 20:41 53.79975 10.33392 3976 ft 145 kts 230°
2026-05-03 20:41 53.79348 10.32104 3998 ft 141 kts 230°
2026-05-03 20:41 53.78732 10.30839 4007 ft 138 kts 231°
2026-05-03 20:41 53.78118 10.29579 4002 ft 139 kts 231°
2026-05-03 20:42 53.77501 10.28314 4001 ft 139 kts 231°
2026-05-03 20:42 53.76885 10.27050 3979 ft 140 kts 231°
2026-05-03 20:42 53.76264 10.25778 3861 ft 140 kts 231°
2026-05-03 20:42 53.75646 10.24513 3707 ft 137 kts 231°
2026-05-03 20:43 53.75073 10.23340 3542 ft 124 kts 231°
2026-05-03 20:43 53.74528 10.22224 3388 ft 122 kts 231°
2026-05-03 20:43 53.73988 10.21119 3227 ft 122 kts 232°
2026-05-03 20:43 53.73448 10.20016 3071 ft 122 kts 232°
2026-05-03 20:44 53.72904 10.18905 2908 ft 122 kts 232°
2026-05-03 20:44 53.72363 10.17800 2746 ft 122 kts 232°
2026-05-03 20:44 53.71820 10.16691 2579 ft 122 kts 233°
2026-05-03 20:44 53.71277 10.15582 2418 ft 123 kts 232°
2026-05-03 20:45 53.70733 10.14472 2255 ft 122 kts 231°
2026-05-03 20:45 53.70193 10.13373 2087 ft 122 kts 232°
2026-05-03 20:45 53.69653 10.12271 1913 ft 122 kts 231°
2026-05-03 20:45 53.69113 10.11173 1753 ft 121 kts 231°
2026-05-03 20:46 53.68573 10.10072 1598 ft 123 kts 233°
2026-05-03 20:46 53.68030 10.08960 1473 ft 123 kts 233°
2026-05-03 20:46 53.67492 10.07829 1270 ft 123 kts 233°
2026-05-03 20:46 53.66952 10.06690 1105 ft 129 kts 231°
2026-05-03 20:47 53.66354 10.05548 977 ft 128 kts 231°
2026-05-03 20:47 53.65768 10.04397 764 ft 129 kts 234°
2026-05-03 20:47 53.65187 10.03194 580 ft 134 kts 234°
2026-05-03 20:47 53.64616 10.01969 404 ft 131 kts 230°
2026-05-03 20:48 53.64032 10.00829 233 ft 129 kts 230°
2026-05-03 20:48 53.63459 9.99673 86 ft 129 kts 231°
2026-05-03 20:48 53.62968 9.98669 45 ft 85 kts 230°
2026-05-03 20:48 53.62673 9.98082 42 ft 51 kts 229°
2026-05-03 20:49 53.62519 9.97797 41 ft 22 kts 205°
2026-05-03 20:49 53.62429 9.97870 45 ft 13 kts 107°
2026-05-03 20:49 53.62441 9.98019 46 ft 13 kts 71°
2026-05-03 20:49 53.62494 9.98160 47 ft 15 kts 50°
2026-05-03 20:50 53.62565 9.98300 47 ft 17 kts 50°
2026-05-03 20:50 53.62641 9.98457 47 ft 18 kts 51°
2026-05-03 20:50 53.62723 9.98627 47 ft 19 kts 49°
2026-05-03 20:50 53.62810 9.98796 47 ft 20 kts 50°
2026-05-03 20:51 53.62899 9.98975 47 ft 20 kts 50°
2026-05-03 20:51 53.62990 9.99161 47 ft 21 kts 50°
2026-05-03 20:51 53.63080 9.99353 47 ft 21 kts 56°
2026-05-03 20:51 53.63165 9.99559 46 ft 22 kts 49°
2026-05-03 20:52 53.63263 9.99739 48 ft 21 kts 43°
2026-05-03 20:52 53.63356 9.99923 48 ft 20 kts 50°
2026-05-03 20:52 53.63434 10.00081 48 ft 16 kts 54°
2026-05-03 20:52 53.63431 10.00214 48 ft 9 kts 136°
2026-05-03 20:53 53.63411 10.00312 48 ft 9 kts 86°
2026-05-03 20:53 53.63415 10.00364 48 ft 0 kts 82°